RYR10MQ LEST-LEZL

Flight info

Callsign RYR10MQ
Flight time N/A
Altitude 33000
Route FORNO DCT DESAT DCT ZMR DCT AVILA DCT NVS DCT TLD DCT DOPEN DCT MONTO DCT MOLIN DCT HIJ
Aircraft B738/M-SDE2E3FGHIRWXY/LB1

Departure

Time 2026-04-30 11:29
Airport Santiago-Rosalía de Castro Airport (LEST)

Arrival

Time N/A
Airport Seville Airport (LEZL)
Time Latitude Longitude Altitude Speed Heading
2026-04-30 10:58 42.89034 -8.41796 1201 ft 0 kts 166°
2026-04-30 11:23 42.89049 -8.41805 1200 ft 4 kts 112°
2026-04-30 11:24 42.89052 -8.41839 1200 ft 4 kts 81°
2026-04-30 11:24 42.89050 -8.41853 1200 ft 1 kts 79°
2026-04-30 11:26 42.89051 -8.41844 1200 ft 6 kts 79°
2026-04-30 11:26 42.89072 -8.41723 1200 ft 18 kts 76°
2026-04-30 11:26 42.89067 -8.41562 1201 ft 18 kts 145°
2026-04-30 11:27 42.88948 -8.41513 1202 ft 18 kts 166°
2026-04-30 11:27 42.88806 -8.41466 1204 ft 21 kts 166°
2026-04-30 11:27 42.88663 -8.41421 1206 ft 21 kts 168°
2026-04-30 11:27 42.88524 -8.41375 1207 ft 20 kts 165°
2026-04-30 11:28 42.88389 -8.41151 1210 ft 19 kts 73°
2026-04-30 11:28 42.88468 -8.41126 1211 ft 0 kts 346°
2026-04-30 11:28 42.88580 -8.41163 1208 ft 49 kts 346°
2026-04-30 11:29 42.89154 -8.41355 1200 ft 118 kts 346°
2026-04-30 11:29 42.90145 -8.41690 1210 ft 171 kts 345°
2026-04-30 11:29 42.92550 -8.42454 2604 ft 179 kts 345°
2026-04-30 11:30 42.95224 -8.43323 3425 ft 222 kts 343°
2026-04-30 11:30 42.96762 -8.43883 3922 ft 233 kts 342°
2026-04-30 11:30 42.98392 -8.44430 4334 ft 256 kts 352°
2026-04-30 11:31 43.00238 -8.44040 4738 ft 279 kts 22°
2026-04-30 11:31 43.01832 -8.42561 5684 ft 277 kts 45°
2026-04-30 11:31 43.02958 -8.40411 6416 ft 284 kts 68°
2026-04-30 11:31 43.03344 -8.37782 7151 ft 284 kts 95°
2026-04-30 11:32 43.02884 -8.35223 7937 ft 282 kts 120°
2026-04-30 11:32 43.01670 -8.33159 8704 ft 280 kts 143°
2026-04-30 11:32 42.99982 -8.31808 9485 ft 278 kts 162°
2026-04-30 11:33 42.96244 -8.30096 10586 ft 302 kts 164°
2026-04-30 11:33 42.94160 -8.29197 10770 ft 326 kts 164°
2026-04-30 11:33 42.91939 -8.28240 11131 ft 341 kts 164°
2026-04-30 11:33 42.89656 -8.27252 11754 ft 347 kts 164°
2026-04-30 11:34 42.87342 -8.26249 12477 ft 350 kts 164°
2026-04-30 11:34 42.85011 -8.25240 13172 ft 354 kts 164°
2026-04-30 11:34 42.82746 -8.23864 13797 ft 362 kts 149°
2026-04-30 11:34 42.80805 -8.21655 14443 ft 368 kts 134°
2026-04-30 11:35 42.79273 -8.18818 15092 ft 374 kts 124°